GFSMA_prec_radar_150.txt.gz
Reflectivity
-20 -20 -20 -20 -20 -20 -20 -20 -20 -7 -15 2 -19 -8 -17 34 -20 26 5 -20 -20 -20 -20 -12 -20 -20 -20 -20 -20 -20 -20 -20 -12 -20 -15 -14 18 -19 -20 -20 -20 -20 -20
-20 -20 -20 -20 -20 -20 -20 -20 -20 -20 -20 -20 -20 -20 -18 25 37 -8 43 -14 -20 -20 -20 -20 -20 -20 -20 -20 -20 -20 -20 11 -20 6 10 -6 -0 2 -20 -20 -20 -20 -19
-20 -20 -20 -20 -20 -20 -20 -20 -20 -20 -20 -19 7 -20 -20 -18 -12 7 34 2 -20 -20 -20 -20 -17 -20 -20 -20 -20 -20 -20 -20 24 -16 4 24 -10 7 -17 -20 -20 -20 -20
-20 -20 -20 -20 -20 -20 -20 -20 -20 -20 -20 -20 -10 -20 -20 -20 -19 -20 12 5 7 -20 -20 -20 -20 -20 -20 -20 -20 -20 -20 -20 -20 -2 -20 18 30 24 6 -1 -20 -20 -20
-20 -20 -20 -20 -20 -20 -20 -20 -20 -20 -20 -20 -20 -17 3 -20 -20 -20 20 37 1 13 -20 -18 -20 -20 -20 -20 -20 -20 -20 -20 -20 -20 -20 -4 15 16 -7 -20 -20 -20 -20
-20 -20 -20 -20 -20 -20 -20 -20 -20 -20 -20 -20 -20 -20 -20 6 -20 -20 -19 14 -8 2 -20 -20 0 -20 -20 -20 -20 -20 -20 -20 -20 -20 -20 -20 -15 -5 -20 -20 -20 -20 -20
-20 -20 -20 3 10 -17 -10 0 -20 -20 -20 -20 -20 -20 -20 -20 18 -20 -20 -12 30 33 30 32 -14 -20 -20 -20 -20 -20 -20 -20 -20 -20 -20 -20 -20 -20 -20 -20 -20 -20 -19
-20 -20 -20 -3 15 10 12 7 -10 -19 -20 -20 -5 1 -19 -20 -20 -16 -20 -20 22 8 32 30 -20 22 -20 -20 -20 -20 -20 -20 -20 -20 -20 -20 -20 -20 -11 -20 -20 -20 -20
-20 -20 -20 -20 -11 -3 10 12 -7 6 -3 -20 -20 4 9 -20 -15 -20 -20 -20 -20 18 33 -14 40 4 -13 -20 -10 -20 -20 -20 -20 -20 -20 -20 -20 -20 -20 -20 -20 -20 -20
-20 -20 -20 -20 -17 -11 -14 -17 3 7 9 -17 -4 -20 -20 -0 11 12 -5 -20 -20 -20 30 9 17 34 14 -12 -20 -20 -20 -20 -20 -20 -20 -20 -20 -20 -20 -20 -20 -20 -20
-13 -12 -3 -20 -19 3 -18 -2 1 -20 -20 10 -19 -20 -20 -20 -20 12 4 18 4 -20 -20 30 32 33 1 -17 -13 -4 -20 -20 -20 -20 -20 -20 -20 -20 -20 -20 -20 -20 -20
-19 3 0 -1 -10 3 -14 -20 4 -8 -13 -1 11 -18 -1 -18 -15 8 -17 20 -10 -20 -20 15 40 32 30 -12 -9 -18 -20 -20 -20 -20 -20 -20 -20 -20 -20 -20 -20 -20 -20
-7 3 2 1 1 -6 -20 -11 -6 -20 -3 9 8 10 -20 -20 -6 -19 23 -5 20 7 -15 -20 29 28 -11 2 -2 -1 -20 29 -20 -20 -20 -20 -20 -20 -20 -20 -20 -20 -20
-14 3 6 2 -2 1 -14 -18 -5 6 3 -2 -20 2 5 5 -20 -19 15 29 9 11 7 -20 -19 26 30 28 19 28 5 -20 -20 -20 -20 -20 -20 -20 -20 -20 -20 -20 -20
0 1 1 1 -1 -1 -2 2 13 19 0 14 19 2 19 13 -13 -16 4 34 22 17 -11 -20 -20 -20 -18 10 37 25 29 24 -20 -20 -20 -20 -20 -20 -20 -20 -20 -20 -20
1 -7 7 1 -1 -10 -0 -1 9 19 24 23 16 16 24 0 7 -20 -2 19 24 17 -12 -20 -20 -20 -20 -15 32 43 31 28 17 -20 -20 -20 -20 -20 -20 -20 -20 -20 -20
-2 -10 1 5 -15 -20 -19 -8 5 21 18 13 13 29 -7 27 -9 -17 -11 -8 16 24 26 -18 -20 -12 -20 9 10 7 32 29 5 -5 -20 -20 -20 -20 -20 -20 -20 -20 -20
-11 -20 -19 2 -19 -18 -6 0 12 14 16 10 25 30 31 31 -2 5 -2 33 27 22 19 -16 -20 -19 10 -8 -7 31 35 31 3 29 -20 -20 -20 -20 -20 -20 -20 -20 -20
-20 -20 -20 -19 4 -10 -18 17 15 18 17 17 19 32 32 35 28 39 16 7 26 15 8 10 12 28 23 3 39 44 27 20 40 28 26 29 25 23 13 9 9 11 6
-20 -20 -20 -20 -16 -10 2 -2 14 20 22 26 21 24 28 19 20 28 15 -15 -3 -20 -20 -20 -20 -20 14 22 23 18 22 42 43 37 30 29 25 22 18 19 12 14 19
-20 -20 -20 -20 -20 -8 -3 -12 -2 12 18 17 -3 -4 6 10 1 -17 -20 -20 -20 -20 -20 -20 -20 -20 -10 24 30 19 30 35 44 42 38 27 28 26 19 19 17 17 19
-20 -20 -20 -20 -20 -20 -20 -6 2 -9 5 20 20 -4 -9 4 -3 -9 -6 -8 -15 -15 -20 -20 -19 7 -8 11 6 13 19 26 33 30 42 32 31 26 18 4 19 16 17
-20 -20 -20 -20 -20 -20 -20 -20 -5 -20 -20 -13 -8 -7 -17 -20 -20 -10 4 -15 -19 -18 -0 -13 -18 -8 7 14 5 28 9 33 24 34 35 40 33 37 23 16 17 3 9
-20 -20 -20 -20 -20 -20 -20 -20 -20 -20 -20 -20 -20 -20 -20 -20 -20 -20 -20 -14 -19 -10 9 5 -3 10 12 15 27 18 25 21 27 28 39 45 39 34 34 27 23 17 11
-20 -20 -20 -20 -20 -20 -20 -20 -20 -20 -20 -4 -19 -20 -20 -20 -20 -20 -18 -13 -17 -20 -1 2 12 16 23 29 25 25 22 29 28 28 31 39 32 37 40 38 29 34 30
-10 4 -20 -20 -20 -20 -20 -20 -20 -20 -20 -20 -13 -19 -20 -20 -19 -13 -11 -0 1 8 -14 -8 4 1 5 14 24 21 13 20 25 26 27 29 25 24 27 27 29 34 29

GFSMA_prec_radar_156.txt.gz
Reflectivity
-20 -20 -20 -20 -20 -20 -20 -20 -20 -20 -20 -20 -20 -20 -20 -20 -20 12 -20 6 32 -20 -2 -11 -20 4 -13 -20 -20 -20 -20 -20 -14 2 -20 -20 3 21 14 -0 -20 -20 -20
-20 -20 -20 -20 -20 -20 -20 -20 -20 -20 -20 -20 -20 -20 -20 -20 -20 1 -18 -19 27 24 -20 11 20 -0 -2 -20 -20 -20 -20 -20 -20 -20 -20 -20 -15 -20 -20 -18 -14 -20 -20
-20 -20 -20 -20 -20 -20 -20 -20 -20 -20 -20 -20 -20 -20 -20 -20 -20 -20 12 -17 -20 -12 30 -14 -2 17 7 -12 -20 -20 -20 -20 -20 -20 -20 -20 -19 -13 -20 -20 -20 -20 -20
-20 -20 -20 -20 -20 -20 -20 -20 -20 -20 -20 -20 -20 -20 -20 -20 -20 -20 -20 -20 -20 -19 14 31 -9 16 19 -7 -20 -20 -20 -20 -20 -20 -20 -20 -20 -11 -0 11 3 -18 -20
-20 -20 -20 -20 -20 -20 -20 -20 -20 -20 -20 -20 -20 -20 -20 -20 -20 -20 -20 -20 -8 -20 -20 -14 24 -19 35 -3 6 -20 -20 -20 -20 -20 -20 -20 -20 -13 -13 15 17 9 -14
-20 -20 -20 -20 -20 -20 -20 -20 -20 -20 -7 -20 -20 -20 -20 -20 -20 -20 -20 -20 -20 3 -20 -9 4 -18 35 -4 4 -20 -20 -20 -20 -20 -20 -20 -20 -20 -17 -15 20 24 8
-20 -20 -20 -20 -20 -20 -20 -20 -20 -20 -20 -16 3 -20 -20 -20 -20 -20 -20 -20 -20 -20 9 -20 -19 30 -8 32 32 32 -20 -20 -20 -20 -20 -20 -20 -20 -20 -20 22 23 11
-20 -20 -20 -20 -20 -2 -20 -20 -8 1 0 -20 6 4 -20 -20 -20 -20 -20 -20 -20 -20 6 14 -20 -13 -6 29 29 32 26 -20 -20 -20 -20 -20 -20 -20 -20 -20 1 25 27
-20 -20 -20 -20 -8 -0 -1 -10 -12 -9 -19 -8 -20 11 0 -9 -20 -20 -20 -20 -20 -20 -20 -15 21 -20 -12 27 29 32 29 30 -17 -20 -20 -20 -20 -20 -20 -20 -20 18 -2
-20 -20 -17 -20 -6 0 -2 -2 -2 4 8 -0 -2 -20 -1 12 15 -3 -20 -20 -19 -20 -20 9 -12 -18 -4 16 28 36 29 28 22 12 -20 -20 -20 -20 -20 -19 -20 -20 -20
-20 -20 -20 -20 -1 -1 -20 -0 -3 4 10 9 5 -19 2 1 -0 12 -7 -20 -20 -20 -20 -20 -19 3 -17 13 -11 41 34 31 27 11 -1 -17 -20 -20 -20 -20 -20 -20 -20
-20 -20 -20 -1 -2 -6 -20 -6 -19 4 6 11 11 12 6 7 2 8 13 3 -20 -20 -12 -20 -20 -20 11 12 17 -9 30 30 25 36 25 4 23 2 -18 -20 -20 -20 -20
-20 -20 -20 3 -1 -4 -20 -14 1 -7 6 11 15 9 -2 14 13 14 19 14 -6 -20 -20 -20 -20 -20 -20 17 14 -20 19 6 28 45 23 23 21 7 22 6 -20 -20 -20
-20 -20 -19 -1 -6 -18 -4 -20 -0 -0 -4 -6 9 -12 -1 3 13 15 17 18 8 -12 -14 -20 -20 -19 -17 -16 2 -4 12 22 33 35 26 18 4 26 -20 26 -20 -20 17
-20 -20 -16 -6 -20 -20 -7 -11 -16 -2 -19 -20 -19 -1 -5 11 5 4 9 15 17 12 -19 -20 -20 -20 -20 19 16 22 25 28 14 -6 -16 15 25 -1 24 24 8 -20 -20
-20 -20 -20 -17 -20 -20 -20 -12 -2 -16 -20 -20 -20 -20 -5 -7 -8 -0 4 11 8 12 12 -18 -20 -20 -20 -20 26 19 24 25 16 26 14 25 27 26 20 26 25 9 -20
-20 -20 -20 -17 -18 -20 -20 -20 -20 -20 -20 -20 -20 -18 -15 -0 -1 -0 -2 -2 -12 3 12 -10 4 -1 19 2 -20 -20 -20 17 13 25 27 26 26 32 27 26 26 26 25
-20 -20 -20 -20 -5 -20 -20 -20 -20 -20 -20 -20 -20 -18 3 -18 -14 3 11 6 22 -3 14 10 -20 11 11 22 -9 -16 -18 -20 -2 18 23 34 37 38 43 33 26 23 25
-20 -20 -20 -20 -20 -20 -20 -20 -20 -20 -20 -20 -17 -19 -20 -20 6 20 17 11 13 34 36 -19 -16 7 26 30 21 4 10 -8 6 23 21 12 21 16 25 20 18 23 27
-20 -20 -20 -20 -20 -20 -20 -20 -20 -20 -20 -20 -20 -20 -17 -18 -2 18 25 30 24 20 26 24 -9 31 -2 -14 -2 -11 10 8 -12 4 6 6 -4 -3 -12 13 29 16 15
-20 -20 -20 -20 -20 -20 -20 -20 -20 -20 -20 -20 -20 -20 -18 -19 3 10 21 28 26 23 29 26 31 1 7 9 2 -12 -14 6 7 8 -9 17 -13 -20 -16 5 10 29 35
-20 -20 -20 -20 -20 -20 -20 -20 -20 -20 -20 -20 -20 -20 -20 -20 -15 -20 -6 22 23 27 24 4 9 18 23 23 23 -1 19 -20 -20 -20 -5 1 -20 -20 -20 1 14 31 30
-20 -20 -20 -20 -20 -20 -20 -20 -20 -20 -20 -20 -20 -20 -20 -20 -20 -20 -1 8 15 22 25 26 17 -10 -0 21 1 -11 1 9 -6 -6 -18 -20 -18 -20 -9 -4 15 26 38
-20 -20 -20 -20 -20 -20 -20 -20 -20 -20 -20 -20 -20 -20 -20 -20 -20 -10 -20 -20 -20 5 16 13 7 13 6 -8 -4 1 2 8 16 -4 -8 -18 -16 -13 -4 11 17 21 28
-20 -20 -20 -20 -20 -20 -13 -15 -20 -20 -20 -20 -20 -20 -20 -20 -20 -15 -10 -16 -20 -7 -7 -5 -4 -12 -6 -3 -10 -11 -3 -1 3 7 11 11 14 0 -8 6 11 17 23
-20 -20 -20 -20 -20 -20 -20 -3 -20 -20 -20 -20 -20 -20 -20 -20 -20 -20 -12 -8 -14 -18 -20 -20 -13 -20 -20 -20 -12 2 7 8 7 -0 12 15 4 -3 -7 4 13 19 33

GFSMA_prec_radar_159.txt.gz
Reflectivity
-20 -20 -20 -20 -20 -20 -20 -20 -20 -20 -20 -20 -20 -20 -20 -20 -20 -20 -20 13 -20 -20 -20 -20 -9 -10 -20 -20 -20 13 -20 -20 19 23 -0 -20 -17 19 29 31 24 -19 -18
-20 -20 -20 -20 -20 -20 -20 -20 -20 -20 -20 -20 -20 -20 -20 -20 -20 -20 -20 -20 6 -20 -20 -20 -20 -0 3 14 -20 -20 -20 -20 3 19 -20 28 -20 -20 4 34 34 15 -17
-20 -20 -20 -20 -20 -20 -20 -20 -20 -20 -20 -20 -20 -20 -20 -20 -20 -20 -20 -20 -20 -4 -20 -17 -20 -15 -3 31 5 1 -20 -20 -20 3 -19 20 -4 -20 -4 11 26 21 -19
-20 -20 -20 -20 -20 -20 -20 -20 -20 -20 -20 -20 -20 -20 -20 -20 -20 -20 -20 -20 -20 -13 -18 -20 -16 -20 16 8 1 -7 3 -20 -20 -20 -12 -20 13 -20 -11 -20 -20 -20 -20
-20 -20 -20 -20 -20 -20 -20 -20 -20 -20 -20 -20 -20 -20 -20 -20 -20 -20 -20 -20 -20 -20 0 -20 -11 -18 -19 19 13 -13 -13 -20 -20 -20 -20 -20 -20 -20 -17 -20 -20 -20 -20
-20 -20 -20 -20 -20 -20 -20 -20 -20 -20 -20 -20 -20 -20 -20 -20 -20 -20 -20 -20 -20 -20 -20 6 -20 -15 -13 -20 29 11 16 -20 -20 -20 -20 -20 -20 -20 30 -20 -14 -18 -8
-20 -20 -20 -20 -20 -20 -20 -20 -20 -20 -20 -20 1 -20 -20 -20 -20 -20 -20 -20 -20 -20 -20 -20 -1 -20 -6 28 -4 -15 22 30 -15 -20 -20 -20 -20 -20 -20 -14 -14 16 -9
-20 -20 -20 -20 -20 -20 -20 -20 -15 -15 -18 -18 -2 -10 -17 -20 -20 -20 -20 -19 -20 -20 -20 -20 -9 -0 -20 -15 2 11 31 34 31 -11 -20 -20 -20 -20 -20 -20 -20 -20 21
-20 -20 -20 -20 -20 -20 -20 -15 -10 -9 -4 -20 1 16 7 -17 -20 -20 -20 -20 -18 -20 -20 -20 -1 -6 -20 -20 16 27 28 32 32 20 -16 -20 -20 -20 -20 -20 18 21 23
-20 -20 -20 -20 -20 -20 -20 -19 0 -9 4 -12 -20 3 18 15 13 -4 -20 -20 -9 -20 -20 -20 -20 4 -1 -18 10 12 35 27 17 25 28 7 -18 -20 -20 -20 -20 10 -10
-20 -20 -20 -14 -20 -20 -20 -20 -16 6 -3 7 7 -1 4 4 7 9 -15 -20 -20 -14 -19 -20 -20 -20 -20 13 5 -20 23 30 40 36 26 28 10 -18 -20 -20 -20 -20 -20
-20 -20 -20 -20 -20 -15 -20 -20 5 -19 2 -1 5 -1 4 13 13 15 9 -1 1 -20 -20 -20 -20 -20 -20 -20 10 -20 -20 26 23 40 27 26 27 25 -17 -20 -20 -20 -20
-20 -20 -20 -20 -20 -16 -20 -20 -1 -13 -2 -0 -0 -9 -3 2 14 14 15 10 6 -2 -19 -20 -20 -20 -20 -20 0 -20 -20 -20 -20 15 19 37 36 30 28 24 -2 -10 7
-20 -20 -20 -20 -20 -20 -20 -20 -6 -15 -13 -9 -17 -18 3 0 4 12 15 15 8 -16 -16 -20 -20 -20 -20 -20 -20 -20 -1 -20 -16 3 -13 39 31 45 27 27 -5 24 -12
-20 -20 -20 -20 -20 -20 -20 -20 -9 -20 -14 -0 2 -20 -14 -1 -1 2 10 13 8 10 -10 -20 -20 -20 5 11 -16 -1 -18 -11 2 8 23 24 23 5 32 22 27 26 24
-20 -20 -20 -20 -20 -20 -20 -20 -20 -20 -20 -16 -12 -20 -20 -11 -13 -3 -1 1 -3 4 14 5 -15 -20 -20 -9 5 -13 -4 25 16 18 28 21 20 -7 37 11 29 30 31
-20 -20 -20 -20 -20 -20 -20 -20 -20 -20 -20 -20 -20 -12 -20 -10 -17 -14 -5 -10 -1 10 14 -15 -6 -17 -20 -20 -1 15 2 17 5 -2 -3 23 12 25 12 24 19 27 25
-20 -20 -20 -20 -20 -20 -20 -20 -20 -20 -20 -20 -20 -20 -20 3 -20 -20 -20 -20 -19 -1 5 -4 -8 -15 9 14 23 25 14 0 5 17 6 13 21 13 9 10 22 51 33
-20 -20 -20 -20 -20 -20 -20 -20 -20 -20 -20 -20 -20 -20 -20 -20 -20 -20 -19 -19 -14 -1 3 7 -2 23 20 25 15 21 18 6 -12 8 -20 -2 3 11 9 8 27 30 19
-20 -20 -20 -20 -20 -20 -20 -20 -20 -20 -20 -20 -20 -20 -20 -20 -7 -19 -19 -18 -1 5 2 19 18 16 14 30 25 3 22 28 18 -16 -5 11 7 22 2 15 25 33 32
-20 -20 -20 -20 -20 -20 -20 -20 -20 -20 -20 -20 -20 -20 -20 -20 -18 -7 -7 -17 -9 15 20 17 18 22 18 15 27 34 39 31 35 19 -4 13 17 5 -10 -12 10 9 28
-20 -20 -20 -20 -20 -20 -20 -20 -20 -20 -20 -20 -20 -20 -20 -20 -20 -20 -20 0 2 14 17 24 30 26 21 25 17 28 28 10 30 11 7 25 22 14 -12 17 16 12 14
-20 -20 -20 -20 -20 -20 -4 -20 -20 -20 -20 -20 -20 -20 -20 -20 -20 -20 -20 -20 -16 -4 15 20 20 27 26 24 22 22 11 22 24 12 17 -9 -14 -19 -7 -1 4 10 -1
-20 -20 -20 -20 -20 -10 -14 -20 -20 -20 -20 -20 -20 -20 -20 -20 -20 -20 -20 -20 -20 -15 8 16 23 18 22 28 18 21 18 10 16 12 7 -5 -20 -15 -20 -9 4 -8 -16
-20 -20 -20 -20 -20 -20 -1 -15 -20 -20 -20 -20 -20 -20 -20 -20 -20 -20 -20 -20 -20 -20 -4 3 15 18 19 14 17 19 20 18 0 4 11 14 10 3 2 -8 -5 1 -9
-20 -20 -20 -20 -20 -20 -14 2 -20 -20 -20 -20 -20 -20 -20 -20 -20 -20 -20 -20 -20 -18 -7 -17 6 10 18 16 13 6 -1 7 9 11 2 -3 -2 -2 -0 -10 -6 -8 -11

GFSMA_prec_radar_162.txt.gz
Reflectivity
-20 -20 -20 -20 -20 -20 -20 -20 -20 -20 -20 -20 -20 -20 -20 -20 -20 -20 -20 -20 -20 -20 -16 10 -18 -20 -20 -20 -20 -4 -20 -20 -20 -20 3 17 -20 -8 14 22 23 33 17
-20 -20 -20 -20 -20 -20 -20 -20 -20 -20 -20 -20 -20 -20 -20 -20 -20 -20 -20 -20 -20 -20 -20 -6 8 -1 -20 1 -19 -18 -20 -20 -20 -20 -20 24 -20 -20 15 12 27 30 28
-20 -20 -20 -20 -20 -20 -20 -20 -20 -20 -20 -20 -20 -20 -20 -20 -20 -20 -20 -20 -20 -20 -20 -20 -20 4 -17 -20 -13 -17 13 -16 -20 -20 -20 -9 -20 -20 9 18 14 26 31
-20 -20 -20 -20 -20 -20 -20 -20 -20 -20 -20 -20 -20 -20 -20 -20 -20 -20 -20 -20 -20 -20 -20 -20 -20 -20 -20 -20 -20 -9 23 4 -6 -20 -20 -20 -20 -20 -20 -20 13 19 32
-20 -20 -20 -20 -20 -20 -20 -20 -20 -20 -20 -20 -20 -20 -20 -20 -20 -20 -20 -20 -20 -20 -20 -20 -20 -20 -20 31 -14 8 12 4 23 9 -11 -20 -5 -20 -20 -20 -19 12 16
-20 -20 -20 -20 -20 -20 -20 -20 -20 -20 -20 -20 -20 -20 -20 -20 -20 -20 -20 -20 -20 -20 -20 -20 -20 -20 -20 -20 22 4 27 -1 12 11 3 -20 -20 -20 -20 13 -20 -6 -20
-20 -20 -20 -20 -20 -20 -20 -20 -20 -20 -20 -20 -20 -20 -20 -20 -20 -20 -20 -20 -18 -20 -20 -20 -20 -20 8 -20 -20 -20 30 29 31 14 2 -10 -20 -20 -20 -20 -20 29 -20
-20 -20 -20 -20 -20 -20 -20 -20 -20 -20 -20 -20 -8 -11 -12 -20 -20 -20 -20 -16 -20 -20 -20 -20 -20 -20 -20 -20 -20 -4 -5 29 -10 29 32 10 -20 -20 -20 -20 -20 25 26
-20 -20 -20 -20 -20 -3 -20 -20 -20 -20 -12 -20 -14 12 8 -4 -15 -20 -20 -20 -3 -20 -20 -20 -20 -20 -20 -4 1 3 -20 28 28 29 33 33 -5 -20 -20 -20 -20 -5 26
-20 -20 -20 -20 -20 -7 -20 -20 -20 -2 -1 -9 -16 3 5 16 14 1 -20 -20 -20 -20 -20 -20 -20 -20 -20 -20 1 13 -20 -19 26 6 8 33 18 11 -3 -20 -20 -20 26
-20 -20 -20 -20 -20 -20 -20 -20 -1 -20 -1 -1 4 4 -10 -20 -15 15 -5 -20 -20 -20 -20 -20 -20 -20 -20 -20 -20 -9 13 -4 0 19 12 18 25 20 -10 -20 -20 -20 -20
-20 -20 -20 -20 -20 -20 -20 -20 -18 -20 -8 -9 1 -13 3 10 7 9 -1 -18 -20 -20 -20 -20 -20 -20 -20 -20 -20 -16 1 -5 3 -3 32 34 34 37 30 -20 -4 -20 -20
-20 -20 -20 -20 -20 -20 -20 -20 -20 -20 -14 -4 -4 -10 -3 5 3 5 -9 -18 -20 -20 -20 -20 -20 -20 -20 -20 -6 -15 -20 -20 -5 1 -20 11 24 29 39 26 10 27 24
-20 -20 -20 -20 -20 -20 -20 -20 -20 -20 -20 -20 -10 -6 -0 1 2 7 7 4 -20 -20 -20 -20 -20 -20 -20 -3 7 13 1 -20 -0 1 -14 9 19 18 41 43 27 30 -4
-20 -20 -20 -20 -20 -20 -20 -20 -20 -20 -20 -20 -20 -0 -9 -2 3 3 5 7 8 -7 -11 -20 -20 -5 -20 -16 5 -14 -5 7 5 0 -2 -17 -5 2 8 31 38 28 31
-20 -20 -20 -20 -20 -20 -20 -20 -20 -20 -20 -20 -20 -16 -20 -20 -16 -5 5 2 2 5 -0 -20 -20 -20 -3 -11 -20 -15 -2 4 -9 1 3 -1 -20 -3 -11 3 13 35 34
-20 -20 -20 -20 -20 -20 -20 -20 -20 -20 -20 -20 -20 -20 -20 -20 -20 -20 -8 2 -2 3 1 -20 -5 -3 13 3 1 -5 11 12 3 5 14 17 20 19 11 -1 2 20 16
-20 -20 -20 -20 -20 -20 -20 -20 -20 -20 -20 -20 -20 -20 -20 -0 -20 -20 -20 -7 -3 1 0 -20 -20 -13 5 -6 11 18 16 21 5 14 15 21 16 11 23 25 27 13 3
-20 -20 -20 -20 -20 -20 -20 -20 -20 -20 -20 -20 -19 -20 -20 -20 -20 -20 -20 -20 -20 -5 -20 -20 -19 -12 -5 7 13 12 10 22 7 20 9 20 21 15 22 21 -0 14 9
-20 -20 -20 -20 -20 -20 -20 -20 -20 -20 -20 -20 -20 -18 -16 -20 -20 -20 -20 -20 -20 -20 -20 -20 -16 0 -6 8 19 27 28 35 34 18 19 20 22 16 10 15 14 32 5
-20 -20 -20 -20 -20 -20 -20 -20 -20 -20 -20 -20 -20 -20 -20 -20 -16 -3 1 -20 -20 -20 -20 -20 -20 -19 16 13 16 23 23 33 19 28 27 -1 -3 9 9 8 31 9 13
-20 -20 -20 -20 -20 -20 -20 -20 -20 -20 -20 -20 -20 -20 -20 -20 -20 -20 -11 -1 -2 -19 -20 -20 -20 -8 8 20 7 21 31 19 27 35 37 14 8 2 12 8 14 -0 13
-20 -20 -20 -20 -20 -20 -20 -20 -20 -20 -20 -20 -20 -20 -20 -20 -20 -20 -20 -20 -20 -7 -10 -14 -12 5 16 25 25 18 17 25 21 22 22 30 27 28 26 23 13 -13 -10
-20 -20 -20 -20 -20 -20 -14 -20 -20 -20 -20 -20 -20 -20 -20 -20 -20 -20 -20 -20 -20 -20 -20 -20 -8 5 14 21 24 27 24 25 26 24 26 24 15 24 36 22 19 26 7
-20 -20 -20 -20 -20 -20 -3 -15 -20 -20 -20 -20 -20 -20 -20 -20 -20 -20 -20 -20 -20 -20 -20 -20 -20 -3 10 15 18 23 21 18 17 19 18 25 12 0 11 11 12 22 -5
-20 -20 -20 -20 -20 -20 -20 2 -20 -20 -20 -20 -20 -20 -20 -20 -20 -20 -20 -20 -20 -20 -20 -20 -20 -20 -8 10 12 17 14 18 18 18 11 -3 -4 5 -6 -15 -16 -13 -20

GFSMA_prec_radar_165.txt.gz
Reflectivity
-20 -20 -20 -20 -20 -20 -20 -20 -20 -20 -20 -20 -20 -20 -20 -20 -20 -20 -20 -20 -20 -20 -20 -20 -17 19 23 -20 -20 -20 -20 -20 -17 -20 -20 -20 -20 -20 7 17 16 27 35
-20 -20 -20 -20 -20 -20 -20 -20 -20 -20 -20 -20 -20 -20 -20 -20 -20 -20 -20 -20 -20 -20 -20 -20 -20 -14 6 13 -18 -20 -20 -20 -20 -9 -20 -20 -20 -20 -14 -7 15 31 29
-20 -20 -20 -20 -20 -20 -20 -20 -20 -20 -20 -20 -20 -20 -20 -20 -20 -20 -20 -20 -20 -20 -20 -20 -20 -20 -4 3 -20 -5 -20 -20 -20 -20 -20 -20 -20 -20 5 -17 23 23 29
-20 -20 -20 -20 -20 -20 -20 -20 -20 -20 -20 -20 -20 -20 -20 -20 -20 -20 -20 -20 -20 -20 -20 -20 -20 -20 -20 -5 2 6 10 -20 -20 -20 2 -20 -20 -20 -20 -20 -14 12 26
-20 -20 -20 -20 -20 -20 -17 -16 -20 -20 -7 -20 -20 -20 -20 -20 -20 -20 -20 -20 -20 -20 -20 -20 -20 -20 -20 -20 8 17 10 5 -20 -20 -8 27 -20 -20 -20 -20 -20 -4 26
-20 -20 -20 -20 -20 -20 -20 -20 -20 -20 -20 -20 -20 -20 -20 -20 -20 -20 -20 -20 -20 -20 -20 -20 -20 -20 -20 -20 -20 4 3 -3 25 17 32 -19 -9 -20 -20 -20 -20 -20 23
-20 -20 -20 -20 -20 -20 -20 -20 -20 -20 -20 -20 -2 -20 -20 -20 -20 -20 -20 -20 -20 -20 -20 -20 -20 -20 -20 -20 -20 -20 11 28 15 7 1 27 -4 -13 -20 -20 -20 -20 -20
-20 -20 -20 -20 -20 -20 -20 -20 -10 -3 -20 -11 1 0 -12 -20 -20 -20 -20 -20 -20 -20 -20 -20 -20 -20 -20 -20 -20 -0 -18 3 9 18 -8 28 20 1 -20 -20 -20 -20 -7
-20 -20 -20 -20 -20 -20 -20 -17 -1 -5 1 -20 -20 4 -2 -7 -20 -20 -20 -20 -20 -20 -20 -20 -20 -20 -20 -20 -20 -20 -8 -20 21 16 25 32 29 22 8 -20 -20 -20 -20
-20 -20 -20 -20 -20 -20 -20 -18 -16 -20 -3 -20 -20 -20 -15 11 10 2 -13 -20 -20 -20 -20 -20 -20 -20 -20 -20 -20 -20 -7 11 3 -12 26 31 37 27 28 -18 -20 -20 -20
-20 -20 -20 -20 -20 -20 -20 -11 -20 -4 -20 -2 -7 -17 -20 -20 -3 3 -19 -20 -20 -20 -20 -20 -20 -20 -20 -20 -20 -20 -2 3 10 -9 19 16 11 35 45 18 -18 -20 -18
-20 -20 -20 -20 -20 -20 -20 -20 -20 -20 -20 -6 -9 -4 -9 2 2 4 3 -20 2 -20 -20 -20 -20 -20 -20 -20 -20 -20 -10 9 2 9 -20 -19 30 33 43 31 -14 17 25
-20 -20 -20 -20 -20 -20 -20 -20 -20 -20 -20 -9 -2 -2 -3 -1 2 3 3 -14 -13 -20 -20 -20 -20 -20 -16 -20 -20 -20 -20 -16 -20 -20 -20 -20 -15 -1 27 43 32 15 30
-20 -20 -20 -20 -20 -20 -20 -20 -20 -20 -20 -20 -20 -6 -2 -5 2 3 4 7 -20 -20 -20 -20 -20 -13 -20 -20 -20 3 4 -9 -20 -17 -19 -20 6 10 25 35 37 34 27
-20 -20 -20 -20 -20 -20 -20 -20 -20 -20 -20 -20 -20 -20 -8 -3 -1 2 2 3 7 2 -20 -20 -20 -20 -20 -15 8 -5 -2 17 -20 -20 -20 -20 -20 -5 -9 -4 3 13 34
-20 -20 -20 -20 -20 -20 -20 -20 -20 -20 -20 -20 -20 -20 -20 -15 -14 -16 -2 -3 -1 3 4 -20 -20 -3 -20 -18 7 -5 6 11 4 -1 8 -5 -4 3 16 -10 16 6 18
-20 -20 -20 -20 -20 -20 -20 -20 -20 -20 -20 -20 -20 -19 -17 -20 -20 -20 -20 -3 -0 2 2 -20 -20 -20 -20 -4 7 2 10 3 12 7 16 -14 -20 -6 -6 8 13 -8 7
-20 -20 -20 -20 -20 -20 -20 -20 -20 -20 -20 -20 -20 -20 -20 -20 -7 -20 -20 -8 -2 -3 1 -3 -20 -13 -11 4 2 1 -2 16 7 12 17 13 11 7 15 12 21 5 4
-20 -20 -20 -20 -20 -20 -20 -20 -20 -20 -20 -20 -9 -3 -20 -12 -7 -2 -0 -3 -20 -9 -5 -3 -2 -12 -13 -13 -0 5 12 20 11 29 19 19 25 17 20 19 19 18 8
-20 -20 -20 -20 -20 -20 -20 -20 -20 -20 -20 -20 -20 -19 -20 -20 -5 -2 -4 2 -12 -10 -20 -20 -12 -20 -20 -18 8 -6 8 25 20 18 27 27 28 17 28 23 22 13 11
-20 -20 -20 -20 -20 -1 -14 -20 -20 -20 -20 -20 -20 -20 -20 -20 -20 -9 3 3 -0 -20 -20 -20 -20 -20 -20 -20 -16 12 -7 18 12 12 23 16 14 19 24 33 23 22 22
-20 -20 -20 -20 -20 -5 -20 -20 -20 -20 -20 -20 -20 -20 -20 -20 -20 -20 -20 -2 2 2 -0 -4 -4 -5 -20 3 -19 7 14 11 15 11 22 19 23 0 36 28 28 28 18
-20 -20 -20 -20 -5 -16 -20 -20 -20 -20 -20 -7 -14 -20 -20 -20 -20 -20 -20 -20 -9 -3 -14 -0 0 4 0 -10 -3 -9 9 16 18 20 11 16 15 19 20 27 34 30 24
-20 -20 -20 -20 -20 -10 -12 -20 -20 -20 -20 -20 -5 -20 -20 -20 -20 -20 -20 -20 -20 -20 -6 4 2 2 6 5 -1 6 9 8 21 28 24 25 28 25 30 26 25 28 24
-20 -20 -20 -20 -20 -20 -4 -20 -20 -20 -20 -20 -20 -20 -20 -20 -20 -20 -20 -20 -20 -20 -20 -20 -20 -20 -17 -16 -20 3 10 19 17 19 23 21 22 23 21 27 28 25 23
-20 -20 -20 -20 -20 -20 -12 -9 -20 -20 -20 -20 -20 -1 -20 -19 -20 -20 -20 -20 -20 -20 -20 -20 -20 -20 -20 -20 -19 -10 3 12 14 12 15 20 18 20 20 22 23 28 23

GFSMA_prec_radar_168.txt.gz
Reflectivity
-20 -20 -20 -20 -20 -20 -20 -20 -20 -20 -20 -20 -20 -20 -20 -20 -20 -20 -20 -20 -20 -20 -20 -20 -20 -20 -20 -14 12 -9 -20 -20 -20 -20 -20 -20 -20 -20 -20 15 -20 19 19
-20 -20 -20 -20 -20 -20 -20 -20 -20 -20 -20 -20 -20 -20 -20 -20 -20 -20 -20 -20 -20 -20 -20 -20 -20 -20 -20 -20 -5 4 -20 -20 -20 -20 -20 -20 -20 -20 -20 -20 -11 -10 2
-20 -20 -20 -20 -20 -20 -20 -20 -20 -20 -20 -20 -20 -20 -20 -20 -20 -20 -20 -20 -20 -20 -20 -20 -20 -20 -20 -20 -20 4 -8 -20 -20 -20 -20 -20 -20 -20 -20 -20 -20 -19 -20
-20 -20 -20 -20 -20 -20 -20 -20 -20 -20 -20 -20 -20 -20 -20 -20 -20 -20 -20 -20 -20 -20 -20 -20 -20 -20 -20 -20 -20 -20 8 -20 -20 -20 -20 -20 -20 -20 -20 -20 -20 -20 -20
-20 -20 -20 -20 -20 -20 -20 -20 -20 -20 -20 -20 -20 -20 -20 -20 -20 -20 -20 -20 -20 -20 -20 -20 -20 -20 -20 -20 -20 -20 -13 25 18 -9 -20 -20 -20 -20 20 -20 -20 -20 -20
-20 -20 -20 -20 -20 -20 -20 -20 -20 -20 -20 -20 -20 -20 -20 -20 -20 -20 -20 -20 -20 -20 -20 -20 -20 -20 -20 -20 -20 -20 -20 6 27 17 11 16 -20 -20 29 23 -20 -20 -20
-20 -20 -20 -20 -20 -20 -20 -20 -20 -20 -20 -20 -20 -20 -20 -20 -20 -20 -20 -20 -20 -20 -20 -20 -20 -20 -20 -20 -20 -20 -20 -20 19 26 -10 30 28 29 20 26 7 -20 -20
-20 -20 -20 -20 -20 -20 -20 -20 -13 -20 -20 -20 -3 -6 -20 -20 -20 -20 -20 -20 -20 -11 -20 -20 -20 -20 -20 -20 -20 -20 -20 -20 9 15 25 2 32 31 -8 28 25 18 -20
-20 -20 -20 -20 -20 -20 -20 -10 -20 -20 -20 -20 -15 2 1 -7 -20 -20 -20 -20 -20 -20 -20 -20 -20 -20 -20 -20 -20 -20 -7 7 -20 -20 2 3 34 31 7 -14 26 -20 -20
-20 -20 -20 -20 -20 -20 -20 -20 -20 -20 -20 -19 -20 -20 -2 8 6 -9 -20 -20 -20 -20 -20 -20 -20 -19 -20 -20 -20 -20 -20 -20 -20 -20 -20 -5 16 16 22 22 33 22 22
-20 -20 -20 -20 -20 -20 -20 -20 -20 -20 -20 -11 -10 -19 -20 -20 -3 1 -19 -20 -20 -20 -20 -20 -20 -20 -13 -19 -18 13 -19 -20 -20 -20 -20 -19 1 23 28 35 14 23 26
-20 -20 -20 -20 -20 -20 -20 -20 -20 -20 -20 -20 -20 -12 -3 1 3 6 -5 -15 -20 -20 -20 -20 10 4 5 -0 15 17 -15 -20 -20 -20 -20 5 -14 -13 6 36 -2 37 39
-20 -20 -20 -20 -20 -20 -20 -20 -20 -20 -20 -20 -15 -20 -11 -5 -4 4 4 -2 -20 -20 -20 -18 -20 -20 -8 3 6 9 -9 12 -10 -20 -13 -12 -17 -20 -20 1 33 34 44
-20 -20 -20 -20 -20 -20 -20 -20 -20 -20 -20 -20 -20 -20 -20 -18 -10 1 4 9 -20 -20 -20 -20 -20 -20 -20 -20 2 -0 4 9 -20 -20 -20 -18 9 0 -20 -19 25 48 31
-20 -20 -20 -20 -20 -20 -20 -20 -20 -20 -20 -20 -20 -20 -20 -20 -20 -20 4 7 9 3 -19 -20 -20 -20 -20 -11 5 -14 10 14 -20 -20 -20 -20 -1 9 3 -20 14 8 19
-20 -20 -20 -20 -20 -20 -20 -20 -20 -20 -20 -20 -20 -20 -20 -20 -20 -20 -12 -9 7 8 5 -20 -20 -2 -20 -20 5 -4 11 13 10 -2 -13 -1 -17 10 1 -13 -5 25 11
-20 -20 -20 -20 -20 -20 -20 -20 -20 -20 -20 -20 -20 -20 -20 -20 -20 -20 -20 -20 -8 4 7 -19 -20 -16 -15 -14 -7 2 12 3 5 14 8 3 2 14 10 8 13 12 17
-20 -20 -20 -20 -20 -20 -20 -20 -20 -20 -20 -20 -20 -20 -20 -20 -20 -19 -10 -20 -20 -14 -18 -2 -20 -8 1 -7 -10 -3 4 -2 3 22 10 12 10 14 14 12 8 15 21
-20 -20 -20 -20 -20 -20 -20 -20 -20 -20 -20 -20 -20 -20 -20 -20 -20 -1 -1 -14 -20 -20 -20 -11 -20 -20 -20 -2 -13 -13 7 -9 -2 16 11 7 10 10 15 21 18 12 15
-20 -20 -2 -2 -4 -15 -20 -20 -20 -20 -20 -20 -20 -20 -20 -20 -20 -18 -5 -4 -6 -16 -20 -20 -20 -20 -20 -13 -2 5 -6 2 -15 -3 18 10 22 17 8 23 23 20 13
-7 -20 -15 2 -1 -2 -20 -13 -1 -1 -7 -20 -20 -20 -20 -20 -20 -20 -19 -3 -5 -20 -11 -20 -20 -20 -20 -20 -4 3 8 7 -1 -7 11 7 15 20 1 24 26 24 28
-20 -20 -1 -1 1 -4 -20 -20 -3 3 -0 0 -2 -3 -12 -20 -20 -20 -20 -20 -20 -2 -1 -3 -3 1 2 7 -8 5 7 -0 1 -19 7 -8 9 1 22 12 31 21 30
-20 -20 -9 -9 -5 -8 -20 -20 -20 -10 -4 -2 -9 -18 -20 -20 -20 -20 -20 -20 -20 -20 -2 3 2 3 1 8 3 -5 -0 6 3 -7 -10 5 14 13 12 8 25 26 29
-20 -20 -20 -20 -20 -1 -20 -20 -20 -20 -20 -20 -20 -20 -20 -20 -20 -20 -20 -20 -20 -20 -20 -3 -0 -0 0 -10 0 5 9 7 7 -1 1 6 8 12 12 18 15 6 19
-20 -20 -20 -20 -20 -2 -20 -20 -20 -20 -20 -20 -20 -20 -20 -20 -20 -20 -20 -20 -20 -20 -20 -20 -20 -20 -20 -20 -16 -20 -20 -2 3 4 -1 2 9 11 9 12 18 8 7
-20 -20 -20 -20 -20 -1 -10 -20 -20 -20 -12 -20 -20 -2 -19 -20 -20 -20 -20 -20 -20 -20 -20 -20 -20 -20 -20 -20 -20 -20 -20 -20 -11 -19 -6 1 6 13 16 16 13 14 20

GFSMA_prec_radar_171.txt.gz
Reflectivity
-20 -20 -20 -20 -20 -20 -20 -20 -20 -20 -20 -20 -20 -20 -20 -20 -20 -20 -20 -20 -20 -20 -20 -20 -20 -20 -20 -20 4 6 -2 -15 -6 -20 -20 -20 -20 -20 -20 -20 -20 7 -14
-20 -20 -20 -20 -20 -20 -20 -20 -20 -20 -20 -20 -20 -20 -20 -20 -20 -20 -20 -20 -20 -20 -20 -20 -20 -20 -20 -20 -20 -18 17 -11 8 -4 -20 -20 -20 -20 -20 -20 -20 -20 11
-20 -20 -20 -20 -20 -20 -20 -20 -20 -20 -20 -20 -20 -20 -20 -20 -20 -20 -20 -20 -20 -20 -20 -20 -20 -20 -20 -20 -20 -20 -20 18 7 -16 -20 -20 -20 19 15 -20 -20 -20 -16
-20 -20 -20 -20 -20 -20 -20 -20 -20 -20 -20 -20 -20 -20 -20 -20 -20 -20 -20 -20 -20 -20 -20 -20 -20 -20 -20 -20 -20 -20 -20 -20 9 30 -17 -19 15 24 -8 15 -20 -20 6
-20 -20 -20 -20 -20 -20 -20 -20 -20 -20 -20 -20 -20 -20 -20 -20 -20 -20 -20 -20 -20 -20 -20 -20 -20 -20 -20 -20 -20 -20 -20 -20 -19 25 31 35 -20 18 -20 20 3 0 -13
-20 -20 -20 -20 -20 -20 -20 -20 -20 -20 -20 -20 -20 -20 -20 -20 -20 -20 -20 -20 -20 -20 -20 -20 -20 -20 -20 -20 -20 -20 -20 -20 -20 -6 -2 34 26 25 17 22 22 19 3
-20 -20 -20 -20 -20 -20 -20 -20 -20 -20 -20 -20 -20 -20 -20 -20 -20 -20 -20 -20 -20 -20 -20 -20 -20 -20 -20 -5 -19 -20 -20 -20 -20 -20 -9 -20 32 -9 29 30 30 26 16
-20 -20 -20 -20 -20 -20 -20 -20 -20 -20 -20 -20 -20 -20 -20 -20 -20 -20 -20 -20 -20 -20 -20 -20 -20 -20 -20 -20 -11 6 8 -20 -20 -10 -20 9 19 31 28 28 30 30 25
-20 -20 -20 -20 -20 -20 -20 -20 -20 -20 -20 -20 -20 -13 -12 -20 -9 -20 -20 -20 -20 -20 -20 -20 -20 -16 -12 -10 4 8 -16 -20 -7 -20 -20 -20 11 16 27 16 23 9 25
-20 -20 -20 -20 -20 -20 -20 -20 -20 -20 -18 -20 -20 -20 -18 -2 0 -10 -20 -20 -20 -20 -20 -20 -4 -1 12 8 18 13 9 14 -1 -3 3 3 -19 12 12 28 15 21 24
-20 -20 -20 -20 -20 -20 -20 -20 -20 -20 -20 -20 -20 -20 -20 -20 -18 -11 -20 -20 -20 -20 -20 -10 3 5 11 17 15 17 15 11 -3 -20 -18 -6 -20 -20 -20 18 27 23 23
-20 -20 -20 -20 -20 -20 -20 -20 -20 -20 -20 -20 -20 -20 -20 -15 -11 -13 3 -19 -20 -20 -20 -17 -17 -20 -11 -4 14 16 17 4 8 -20 -20 -5 -20 -20 -20 -20 18 34 1
-20 -20 -20 -20 -20 -20 -20 -20 -20 -20 -20 -20 -20 -20 -20 -20 -20 -20 -20 -4 -20 -20 -20 -20 -20 -20 -20 -20 -20 -6 8 1 -20 -6 6 -6 -20 -20 -12 8 -1 -12 36
-20 -20 -20 -20 -20 -20 -20 -20 -20 -20 -20 -20 -20 -20 -20 -20 -20 -20 -4 5 -4 -20 -20 -20 -20 -20 -20 -16 7 14 11 16 -7 2 7 11 10 8 7 9 3 -20 12
-20 -20 -20 -20 -20 -20 -20 -20 -20 -20 -20 -20 -20 -20 -20 -20 -20 -20 -20 -7 7 3 -13 -20 -6 -20 -19 -20 4 2 6 21 7 -5 4 8 13 11 -5 4 11 -10 18
-20 -20 -20 -20 -20 -20 -20 -20 -20 -20 -20 -20 -20 -20 -20 -20 -20 -20 -20 -20 -20 2 6 -12 -20 -20 -20 -1 -6 7 9 19 22 12 9 10 11 11 1 -17 5 -4 19
-20 -20 -20 -20 -20 -20 -20 -20 -20 -20 -20 -20 -20 -20 -20 -20 -20 -20 -20 -20 -20 -20 -16 -20 -20 -20 -20 -17 -17 -18 1 1 4 16 10 5 14 14 12 5 14 10 12
-20 -20 -20 -20 -20 -20 -20 -20 -20 -20 -20 -20 -20 -20 -20 -20 -20 -20 -20 -20 -20 -20 -20 -20 -20 -20 -15 -20 -19 4 9 -20 -19 5 9 10 11 18 15 7 15 16 11
-20 -20 -20 -20 -20 -20 -20 -20 -20 -20 -20 -20 -20 -20 -20 -20 -20 -20 -11 -20 -20 -20 -20 -20 -20 -20 -20 -11 -4 -20 1 -19 -20 -5 -19 1 7 8 18 27 15 16 13
-20 -20 -15 -20 -20 -20 -20 -20 -20 -20 -20 -20 -20 -20 -20 -20 -20 -20 -20 -15 -20 -20 -20 -20 -20 -20 -20 -20 -11 2 -10 15 -20 -20 -7 -13 -6 9 7 4 17 18 18
-3 -4 -8 0 -5 -20 -20 -8 -6 -8 -7 -8 -4 -11 -20 -20 -20 -20 -20 -20 -20 -20 -20 -20 -20 -20 -20 -20 -6 2 4 -9 20 -20 -17 -2 -12 -12 5 1 11 12 24
-5 -3 -2 -3 1 -20 -20 -20 0 3 0 2 2 3 -2 -20 -20 -20 -20 -20 -20 -20 -12 -18 -20 1 2 3 2 4 9 4 -3 -20 -5 8 2 3 -19 13 33 12 7
-20 -20 -5 -7 -10 -20 -20 -20 -20 -16 -7 -6 -3 -3 -20 -20 -20 -20 -20 -20 -20 -20 -20 -2 -2 3 -0 4 4 2 -3 10 7 -7 -18 12 -19 11 5 3 7 13 -0
-20 -20 -20 -20 -20 -20 -20 -20 -20 -20 -20 -20 -20 -20 -20 -20 -20 -20 -20 -20 -20 -20 -20 -20 -3 -4 -2 1 3 4 -6 0 25 -15 -20 -2 4 -1 13 4 -7 6 2
-20 -20 -20 -20 -20 -20 -20 -20 -20 -20 -20 -20 -20 -20 -20 -20 -20 -20 -20 -20 -20 -11 -20 -20 -20 -20 -4 -20 -17 -20 -20 -20 -20 3 -20 -3 7 -3 12 3 -11 -18 -18
-20 -20 -20 -20 -20 -18 -20 -20 -20 -20 -14 -2 -5 -2 -20 -20 -20 -20 -20 -20 -20 -15 -19 -18 -4 -3 -20 -6 -20 -0 -13 -20 -20 -19 -7 4 8 5 -6 2 3 -20 9